Date String (YYYY-MM-DD hh:mm:ss) UTC,Instrument flags,Ambient pressure (hPa),Sample flow (lpm),Bypass flow (lpm),Sample temperature (°C),Ambient temperature (°C),ASC tube jacket temperature (°C),LED temperature (°C),Box temperature (°C),Sample RH (%),Span deviation,Mass concentration (μg/m³),Mass concentration (μg/m³),Mass concentration (μg/m³)
DateTimeUTC,F1_M11,P_M11,Q1_M11,Q2_M11,T1_M11,T2_M11,T3_M11,T4_M11,T5_M11,U1_M11,ZSPAN_M11,X0_M11,X2_M11,X1_M11
2022-10-14 10:00:00,,0824.0,5.00,0.00,27.5,26.0,00.0,36.2,29.4,08.8,0000.0,0006.81,0003.55,0003.35
2022-10-14 10:01:00,,0824.0,5.00,0.00,27.5,26.0,00.0,36.3,29.4,08.8,0000.0,0007.36,0003.54,0003.34
2022-10-14 10:02:00,,0824.0,5.00,0.00,27.5,26.0,00.0,36.3,29.4,08.9,0000.0,0006.82,0003.51,0003.32
2022-10-14 10:03:00,,0824.0,5.00,0.00,27.5,26.0,00.0,36.3,29.4,08.8,0000.0,0006.61,0003.50,0003.31
2022-10-14 10:04:00,,0824.0,4.99,0.00,27.5,26.0,00.0,36.3,29.4,08.9,0000.0,0006.55,0003.49,0003.31
2022-10-14 10:05:00,,0824.0,5.00,0.00,27.5,26.0,00.0,36.3,29.4,08.9,0000.0,0006.51,0003.48,0003.31
2022-10-14 10:06:00,,0823.9,5.00,0.00,27.5,26.0,00.0,36.3,29.4,08.9,0000.0,0005.33,0003.49,0003.30
2022-10-14 10:07:00,,0824.0,5.00,0.00,27.5,26.0,00.0,36.3,29.4,08.9,0000.0,0005.24,0003.49,0003.30
2022-10-14 10:08:00,,0824.0,5.00,0.00,27.5,26.0,00.0,36.3,29.4,08.9,0000.0,0005.18,0003.48,0003.30
2022-10-14 10:09:00,,0824.0,5.01,0.00,27.5,26.0,00.0,36.3,29.4,08.9,0000.0,0005.18,0003.49,0003.31
2022-10-14 10:10:00,,0823.9,5.01,0.00,27.5,26.0,00.0,36.3,29.4,08.8,0000.0,0005.34,0003.52,0003.32
2022-10-14 10:11:00,,0824.0,5.00,0.00,27.5,26.0,00.0,36.3,29.4,08.9,0000.0,0005.43,0003.53,0003.33
2022-10-14 10:12:00,,0824.0,5.00,0.00,27.5,26.0,00.0,36.3,29.4,08.9,0000.0,0005.24,0003.53,0003.33
2022-10-14 10:13:00,,0824.0,5.00,0.00,27.5,26.0,00.0,36.3,29.4,09.0,0000.0,0006.16,0003.54,0003.33
2022-10-14 10:14:00,,0824.0,5.00,0.00,27.5,26.0,00.0,36.3,29.4,09.0,0000.0,0006.49,0003.56,0003.34
2022-10-14 10:15:00,,0823.9,4.99,0.00,27.5,26.0,00.0,36.3,29.4,08.9,0000.0,0006.67,0003.59,0003.35
2022-10-14 10:16:00,,0824.0,5.00,0.00,27.5,26.0,00.0,36.3,29.4,08.9,0000.0,0006.73,0003.60,0003.36
2022-10-14 10:17:00,,0824.0,5.00,0.00,27.5,26.0,00.0,36.3,29.4,08.9,0000.0,0006.70,0003.59,0003.36
2022-10-14 10:18:00,,0823.9,5.00,0.00,27.5,26.0,00.0,36.3,29.5,08.9,0000.0,0006.68,0003.60,0003.36
2022-10-14 10:19:00,,0823.9,5.01,0.00,27.5,26.0,00.0,36.3,29.5,08.8,0000.0,0006.87,0003.60,0003.36
2022-10-14 10:20:00,,0824.0,5.00,0.00,27.5,26.1,00.0,36.3,29.5,08.8,0000.0,0007.10,0003.61,0003.36
2022-10-14 10:21:00,,0824.0,5.01,0.00,27.5,26.1,00.0,36.3,29.5,08.9,0000.0,0006.97,0003.60,0003.35
2022-10-14 10:22:00,,0824.0,5.00,0.00,27.5,26.1,00.0,36.3,29.5,08.8,0000.0,0006.86,0003.59,0003.34
2022-10-14 10:23:00,,0824.0,5.00,0.00,27.5,26.1,00.0,36.3,29.5,08.8,0000.0,0006.67,0003.58,0003.33
2022-10-14 10:24:00,,0824.0,5.00,0.00,27.6,26.1,00.0,36.3,29.5,08.8,0000.0,0005.47,0003.57,0003.33
2022-10-14 10:25:00,,0824.0,5.00,0.00,27.6,26.1,00.0,36.3,29.5,08.8,0000.0,0005.11,0003.56,0003.32
2022-10-14 10:26:00,,0824.0,5.00,0.00,27.6,26.1,00.0,36.4,29.5,08.8,0000.0,0005.11,0003.55,0003.31
2022-10-14 10:27:00,,0824.0,5.00,0.00,27.6,26.1,00.0,36.4,29.5,08.8,0000.0,0005.22,0003.56,0003.30
2022-10-14 10:28:00,,0824.0,5.00,0.00,27.6,26.2,00.0,36.4,29.5,08.7,0000.0,0005.18,0003.55,0003.29
2022-10-14 10:29:00,,0824.0,5.00,0.00,27.6,26.2,00.0,36.4,29.6,08.7,0000.0,0005.20,0003.54,0003.27
2022-10-14 10:30:00,,0824.0,5.00,0.00,27.6,26.2,00.0,36.4,29.6,08.7,0000.0,0005.08,0003.53,0003.27
2022-10-14 10:31:00,,0824.0,5.00,0.00,27.6,26.2,00.0,36.4,29.6,08.7,0000.0,0004.90,0003.52,0003.26
2022-10-14 10:32:00,,0823.9,5.00,0.00,27.6,26.2,00.0,36.4,29.6,08.6,0000.0,0004.88,0003.49,0003.25
2022-10-14 10:33:00,,0824.0,5.00,0.00,27.6,26.2,00.0,36.4,29.6,08.5,0000.0,0004.82,0003.46,0003.23
2022-10-14 10:34:00,,0824.0,5.00,0.00,27.6,26.2,00.0,36.4,29.6,08.5,0000.0,0004.74,0003.45,0003.21
2022-10-14 10:35:00,,0824.0,5.00,0.00,27.6,26.2,00.0,36.4,29.6,08.5,0000.0,0004.73,0003.43,0003.19
2022-10-14 10:36:00,,0824.0,5.00,0.00,27.6,26.2,00.0,36.4,29.6,08.6,0000.0,0004.67,0003.42,0003.18
2022-10-14 10:37:00,,0824.0,4.98,0.00,27.6,26.2,00.0,36.4,29.6,08.6,0000.0,0004.63,0003.39,0003.18
2022-10-14 10:38:00,,0824.0,5.00,0.00,27.7,26.2,00.0,36.4,29.6,08.6,0000.0,0004.46,0003.35,0003.17
2022-10-14 10:39:00,,0824.0,5.02,0.00,27.7,26.2,00.0,36.4,29.6,08.8,0000.0,0005.28,0003.34,0003.17
2022-10-14 10:40:00,,0823.9,4.98,0.00,27.7,26.2,00.0,36.4,29.6,08.8,0000.0,0005.83,0003.35,0003.17
2022-10-14 10:41:00,,0823.9,5.00,0.00,27.7,26.2,00.0,36.4,29.6,08.8,0000.0,0005.97,0003.36,0003.17
2022-10-14 10:42:00,,0824.0,5.01,0.00,27.7,26.2,00.0,36.4,29.6,08.8,0000.0,0005.98,0003.36,0003.16
2022-10-14 10:43:00,,0824.0,5.00,0.00,27.7,26.2,00.0,36.4,29.6,08.8,0000.0,0006.10,0003.39,0003.17
2022-10-14 10:44:00,,0824.0,4.98,0.00,27.7,26.2,00.0,36.4,29.6,08.9,0000.0,0006.96,0003.44,0003.19
2022-10-14 10:45:00,,0824.0,5.00,0.00,27.7,26.2,00.0,36.5,29.6,08.9,0000.0,0007.04,0003.46,0003.21
2022-10-14 10:46:00,,0823.9,5.00,0.00,27.7,26.2,00.0,36.5,29.6,09.0,0000.0,0007.11,0003.47,0003.21
2022-10-14 10:47:00,,0824.0,5.00,0.00,27.7,26.2,00.0,36.5,29.6,08.8,0000.0,0007.12,0003.48,0003.22
2022-10-14 10:48:00,,0824.0,5.00,0.00,27.7,26.2,00.0,36.5,29.6,08.7,0000.0,0006.98,0003.47,0003.22
2022-10-14 10:49:00,,0824.0,5.00,0.00,27.7,26.2,00.0,36.5,29.7,08.6,0000.0,0006.99,0003.48,0003.22
2022-10-14 10:50:00,,0823.9,5.00,0.00,27.7,26.2,00.0,36.5,29.6,08.6,0000.0,0006.27,0003.47,0003.22
2022-10-14 10:51:00,,0824.0,5.00,0.00,27.7,26.2,00.0,36.5,29.6,08.7,0000.0,0005.42,0003.45,0003.22
2022-10-14 10:52:00,,0824.0,5.00,0.00,27.7,26.2,00.0,36.5,29.6,08.7,0000.0,0005.30,0003.46,0003.22
2022-10-14 10:53:00,,0823.9,5.00,0.00,27.7,26.2,00.0,36.5,29.7,08.7,0000.0,0005.16,0003.44,0003.23
2022-10-14 10:54:00,,0824.0,4.99,0.00,27.7,26.2,00.0,36.5,29.6,08.7,0000.0,0005.20,0003.45,0003.24
2022-10-14 10:55:00,,0824.0,5.00,0.00,27.7,26.2,00.0,36.5,29.7,08.9,0000.0,0004.36,0003.42,0003.24
2022-10-14 10:56:00,,0823.9,4.99,0.00,27.7,26.3,00.0,36.5,29.7,08.8,0000.0,0004.25,0003.40,0003.23
2022-10-14 10:57:00,,0823.9,5.00,0.00,27.7,26.3,00.0,36.5,29.7,08.7,0000.0,0004.28,0003.40,0003.23
2022-10-14 10:58:00,,0823.9,5.00,0.00,27.7,26.3,00.0,36.5,29.7,08.7,0000.0,0004.30,0003.40,0003.23
2022-10-14 10:59:00,,0823.9,5.01,0.00,27.7,26.3,00.0,36.5,29.7,08.7,0000.0,0004.38,0003.42,0003.23
